{"data":{"norad_id":67899,"intl_designator":"2026-035W","name":"STARLINK-36878","alt_names":[],"object_type":"PAYLOAD","status":"ACTIVE","operator":null,"country":"US","launch_date":"2026-02-21","launch_site_code":"AFWTR","launch_vehicle":null,"mission":null,"orbit_class":"UNKNOWN","rcs_meters":null,"size_class":null,"mass_kg":null,"dimensions":null,"purposes":["comms"],"wikipedia_slug":null,"has_3d_model":false,"image_url":null,"decayed_at":null,"tle_current":{"epoch":"2026-05-24T18:41:12.756768Z","epoch_age_seconds":95006,"freshness":"FRESH","line1":"1 67899U 26035W   26144.77861987  .00020145  00000+0  62440-3 0  9995","line2":"2 67899  97.2850  78.3828 0001461  68.8403 291.2995 15.33457065 15652","mean_motion":15.33457065,"eccentricity":0.0001461,"inclination_deg":97.285,"raan_deg":78.3828,"arg_perigee_deg":68.8403,"mean_anomaly_deg":291.2995,"bstar":0.0006244,"rev_number":1565,"period_min":93.905465817525,"perigee_km":464.50742133296,"apogee_km":466.50713419092,"semimajor_km":6843.6442777619,"source":"CELESTRAK","updated_at":"2026-05-25T13:38:21.736047Z"}}}